VOZ1498 YBHM-YBBN

Flight info

Callsign VOZ1498
Flight time N/A
Altitude 37000
Route OVRON B462 MK V153 MUNAR/N0457F370 Y61 RUROX Y177 BN
Aircraft B738/M-SDE2E3FGHIRWXY/LB1

Departure

Time 2026-04-28 18:12
Airport Hamilton Island Airport (YBHM)

Arrival

Time N/A
Airport Brisbane International Airport (YBBN)
Time Latitude Longitude Altitude Speed Heading
2026-04-28 17:56 -20.35331 148.95051 19 ft 0 kts 27°
2026-04-28 18:09 -20.35330 148.95051 19 ft 1 kts 22°
2026-04-28 18:09 -20.35320 148.95049 19 ft 2 kts 328°
2026-04-28 18:09 -20.35311 148.95001 19 ft 12 kts 290°
2026-04-28 18:09 -20.35248 148.94903 19 ft 18 kts 297°
2026-04-28 18:10 -20.35246 148.94779 21 ft 17 kts 296°
2026-04-28 18:10 -20.35155 148.94701 20 ft 17 kts 336°
2026-04-28 18:10 -20.35093 148.94671 21 ft 3 kts 221°
2026-04-28 18:10 -20.35127 148.94671 18 ft 11 kts 158°
2026-04-28 18:11 -20.35143 148.94682 18 ft 2 kts 143°
2026-04-28 18:11 -20.35194 148.94721 21 ft 34 kts 143°
2026-04-28 18:11 -20.35624 148.95066 24 ft 118 kts 143°
2026-04-28 18:11 -20.36416 148.95687 464 ft 156 kts 144°
2026-04-28 18:12 -20.37455 148.96242 1242 ft 170 kts 165°
2026-04-28 18:12 -20.38621 148.96491 2306 ft 180 kts 163°
2026-04-28 18:12 -20.39911 148.96820 2679 ft 204 kts 162°
2026-04-28 18:12 -20.41349 148.97199 3136 ft 218 kts 162°
2026-04-28 18:13 -20.42862 148.97604 3641 ft 235 kts 162°
2026-04-28 18:13 -20.44492 148.98046 4284 ft 244 kts 161°
2026-04-28 18:13 -20.46172 148.98505 5128 ft 254 kts 162°
2026-04-28 18:13 -20.47884 148.98977 6055 ft 256 kts 161°
2026-04-28 18:14 -20.49632 148.99463 6853 ft 263 kts 162°
2026-04-28 18:14 -20.51415 148.99961 7679 ft 268 kts 163°
2026-04-28 18:14 -20.53245 149.00472 8485 ft 270 kts 163°
2026-04-28 18:14 -20.55048 149.00976 9610 ft 267 kts 163°
2026-04-28 18:15 -20.56843 149.01483 10457 ft 271 kts 164°
2026-04-28 18:15 -20.58751 149.02023 10727 ft 297 kts 164°
2026-04-28 18:15 -20.60811 149.02607 10915 ft 323 kts 165°
2026-04-28 18:15 -20.63095 149.03255 11127 ft 346 kts 165°
2026-04-28 18:16 -20.65438 149.03919 11590 ft 359 kts 165°
2026-04-28 18:16 -20.67881 149.04612 12191 ft 367 kts 166°
2026-04-28 18:16 -20.70374 149.05319 12769 ft 375 kts 167°
2026-04-28 18:16 -20.72938 149.06047 13332 ft 384 kts 167°
2026-04-28 18:17 -20.75527 149.06784 14086 ft 386 kts 167°
2026-04-28 18:17 -20.78139 149.07524 14726 ft 390 kts 168°
2026-04-28 18:17 -20.80771 149.08270 15360 ft 394 kts 168°
2026-04-28 18:17 -20.83422 149.09027 16112 ft 393 kts 167°
2026-04-28 18:18 -20.86073 149.09786 16778 ft 397 kts 168°
2026-04-28 18:18 -20.88757 149.10549 17371 ft 400 kts 168°
2026-04-28 18:18 -20.91443 149.11313 18123 ft 399 kts 168°
2026-04-28 18:18 -20.93225 149.11821 18501 ft 402 kts 167°
2026-04-28 18:19 -20.96869 149.12861 19128 ft 408 kts 167°
2026-04-28 18:19 -20.99615 149.13642 19668 ft 409 kts 168°
2026-04-28 18:19 -21.02375 149.14429 20203 ft 412 kts 167°
2026-04-28 18:19 -21.05155 149.15228 20695 ft 415 kts 168°
2026-04-28 18:20 -21.07962 149.16031 21172 ft 419 kts 168°
2026-04-28 18:20 -21.10788 149.16837 21631 ft 423 kts 168°
2026-04-28 18:20 -21.13648 149.17653 22111 ft 426 kts 168°
2026-04-28 18:20 -21.16486 149.18464 22567 ft 429 kts 168°
2026-04-28 18:21 -21.19378 149.19302 23012 ft 432 kts 168°
2026-04-28 18:21 -21.22287 149.20167 23451 ft 436 kts 168°
2026-04-28 18:21 -21.25215 149.21047 23830 ft 439 kts 168°
2026-04-28 18:21 -21.28164 149.21936 24200 ft 441 kts 168°
2026-04-28 18:22 -21.31125 149.22827 24581 ft 443 kts 168°
2026-04-28 18:22 -21.34104 149.23722 24969 ft 445 kts 168°
2026-04-28 18:22 -21.37096 149.24619 25312 ft 448 kts 168°
2026-04-28 18:22 -21.40102 149.25519 25650 ft 450 kts 168°
2026-04-28 18:23 -21.43132 149.26428 26006 ft 453 kts 168°
2026-04-28 18:23 -21.46176 149.27341 26349 ft 455 kts 168°
2026-04-28 18:23 -21.49235 149.28260 26678 ft 457 kts 168°
2026-04-28 18:23 -21.52271 149.29324 26992 ft 462 kts 164°
2026-04-28 18:24 -21.55290 149.30552 27304 ft 465 kts 162°
2026-04-28 18:24 -21.57322 149.31421 27512 ft 467 kts 162°
2026-04-28 18:24 -21.61322 149.33165 27923 ft 470 kts 162°
2026-04-28 18:24 -21.64367 149.34491 28221 ft 472 kts 162°
2026-04-28 18:25 -21.67420 149.35806 28519 ft 474 kts 162°
2026-04-28 18:25 -21.70494 149.37118 28804 ft 476 kts 162°
2026-04-28 18:25 -21.73583 149.38426 29079 ft 478 kts 162°
2026-04-28 18:26 -21.79808 149.41047 29623 ft 482 kts 162°
2026-04-28 18:26 -21.82947 149.42367 29881 ft 484 kts 162°
2026-04-28 18:26 -21.86084 149.43687 30184 ft 485 kts 162°
2026-04-28 18:26 -21.89230 149.45013 30552 ft 483 kts 162°
2026-04-28 18:27 -21.92348 149.46330 30907 ft 482 kts 162°
2026-04-28 18:27 -21.95475 149.47650 31242 ft 481 kts 162°
2026-04-28 18:27 -21.98590 149.48965 31578 ft 480 kts 162°
2026-04-28 18:27 -22.01697 149.50277 31921 ft 479 kts 162°
2026-04-28 18:28 -22.04798 149.51587 32265 ft 478 kts 162°
2026-04-28 18:28 -22.07897 149.52897 32589 ft 478 kts 162°
2026-04-28 18:28 -22.10983 149.54202 32908 ft 477 kts 162°
2026-04-28 18:28 -22.14073 149.55509 33241 ft 476 kts 162°
2026-04-28 18:29 -22.17150 149.56812 33575 ft 475 kts 162°
2026-04-28 18:29 -22.20231 149.58117 33893 ft 475 kts 162°
2026-04-28 18:29 -22.23307 149.59420 34226 ft 473 kts 162°
2026-04-28 18:29 -22.26364 149.60717 34507 ft 473 kts 163°
2026-04-28 18:30 -22.29434 149.62018 34680 ft 475 kts 163°
2026-04-28 18:30 -22.35584 149.64627 35177 ft 474 kts 162°
2026-04-28 18:30 -22.38647 149.65929 35460 ft 473 kts 162°
2026-04-28 18:31 -22.41712 149.67231 35703 ft 473 kts 162°
2026-04-28 18:31 -22.44743 149.68520 35906 ft 473 kts 162°
2026-04-28 18:31 -22.47808 149.69824 36144 ft 473 kts 162°
2026-04-28 18:31 -22.50859 149.71122 36402 ft 472 kts 162°
2026-04-28 18:32 -22.53921 149.72426 36683 ft 471 kts 163°
2026-04-28 18:32 -22.56970 149.73725 36918 ft 471 kts 162°
2026-04-28 18:32 -22.60018 149.75023 37077 ft 472 kts 162°
2026-04-28 18:33 -22.66156 149.77640 37081 ft 474 kts 162°
2026-04-28 18:33 -22.72265 149.80249 37074 ft 470 kts 162°
2026-04-28 18:34 -22.78325 149.82840 37084 ft 467 kts 162°
2026-04-28 18:34 -22.84352 149.85417 37098 ft 465 kts 163°
2026-04-28 18:35 -22.90368 149.87991 37081 ft 464 kts 163°
2026-04-28 18:35 -22.96380 149.90568 37088 ft 465 kts 163°
2026-04-28 18:36 -23.02405 149.93150 37094 ft 466 kts 163°
2026-04-28 18:36 -23.08413 149.95729 37096 ft 469 kts 163°
2026-04-28 18:37 -23.14496 149.98343 37118 ft 471 kts 163°
2026-04-28 18:37 -23.20604 150.00971 37103 ft 473 kts 163°
2026-04-28 18:38 -23.26741 150.03614 37088 ft 474 kts 163°
2026-04-28 18:38 -23.32883 150.06261 37095 ft 475 kts 163°
2026-04-28 18:39 -23.33882 150.06692 37099 ft 475 kts 163°
2026-04-28 18:40 -23.50489 150.13866 37099 ft 472 kts 163°
2026-04-28 18:40 -23.56588 150.16506 37085 ft 471 kts 163°
2026-04-28 18:41 -23.62664 150.19139 37104 ft 469 kts 163°
2026-04-28 18:41 -23.68722 150.21764 37101 ft 468 kts 163°
2026-04-28 18:42 -23.69706 150.22191 37096 ft 468 kts 163°